User: anonymous   Login
Location: Unspecified
(0.0000°N, 0.0000°E)
Time: 01:56:51
(UTC+02:00)
Language:

OPAL - Orbit

View from above orbital plane
View from above orbital plane
View from above satellite
View from above satellite

Ground track
Ground track

The orbit data is extracted from the following two-line orbital elements,

1 26063U 00004C   14295.07414404  .00000340  00000-0  13512-3 0   922
2 26063 100.2260 104.5656 0036971 159.7607 200.5048 14.36419519772242
Epoch (UTC): 22 October 2014 01:46:46
Eccentricity: 0.0036971
inclination: 100.2260°
perigee height: 744 km
apogee height: 797 km
right ascension of ascending node: 104.5656°
argument of perigee: 159.7607°
revolutions per day: 14.36419519
mean anomaly at epoch: 200.5048°
orbit number at epoch: 77224

The dashed part of the orbit path shows where the satellite is in the earth's shadow,  

DLR